Location: Unspecified
(0.0000°N, 0.0000°E)
Time: 01:01:02
(UTC+00:00)

Courier 1B Rocket - All Passes

Search period start: 20 July 2019 00:00
Search period end: 30 July 2019 00:00
Orbit: 920 x 1202 km, 28.2° (Epoch: 19 July)

Date Brightness Start Highest point End Pass type
(mag) Time Alt. Az. Time Alt. Az. Time Alt. Az.
20 Jul - 01:46:06 10° WNW 01:53:37 50° SSW 02:01:07 10° SE night (unlit)
20 Jul - 03:43:19 10° WSW 03:47:59 17° SSW 03:52:36 10° SSE visible
20 Jul - 09:33:18 10° S 09:35:25 11° SSE 09:37:30 10° SE daylight
20 Jul - 11:23:40 10° SW 11:29:37 38° SSE 11:35:22 10° E daylight
20 Jul - 13:16:54 10° WSW 13:23:02 55° NNW 13:29:08 10° NE daylight
20 Jul - 15:13:24 10° WNW 15:16:50 15° NNW 15:20:18 10° N daylight
20 Jul - 21:01:29 10° N 21:03:49 12° NNE 21:06:11 10° NE visible
20 Jul - 22:51:32 10° NW 22:58:19 37° NNE 23:05:22 10° E visible
21 Jul - 00:44:32 10° WNW 00:52:14 73° SSW 01:00:04 10° SE night (unlit)
21 Jul - 02:40:21 10° WSW 02:46:25 24° SSW 02:52:25 10° SSE visible
21 Jul - 10:23:05 10° SSW 10:28:28 26° SSE 10:33:37 10° E daylight
21 Jul - 12:15:38 10° WSW 12:22:03 86° NNW 12:28:17 10° ENE daylight
21 Jul - 14:10:50 10° WNW 14:15:34 22° NNW 14:20:20 10° NNE daylight
21 Jul - 21:51:07 10° NNW 21:56:55 25° NNE 22:02:58 10° E visible
21 Jul - 23:43:19 10° NW 23:50:54 79° NNE 23:58:46 10° ESE night (unlit)
22 Jul - 01:38:00 10° W 01:44:54 34° SSW 01:51:51 10° SE night (unlit)
22 Jul - 03:37:07 10° SW 03:39:42 12° SSW 03:42:15 10° S visible
22 Jul - 09:22:43 10° SSW 09:27:10 18° SSE 09:31:25 10° ESE daylight
22 Jul - 11:14:34 10° SW 11:21:03 62° SSE 11:27:14 10° ENE daylight
22 Jul - 13:08:49 10° W 13:14:27 34° NNW 13:20:02 10° NE daylight
22 Jul - 20:51:07 10° NNW 20:55:28 17° NNE 20:59:58 10° ENE visible
22 Jul - 22:42:24 10° NW 22:49:35 54° NNE 22:57:09 10° ESE visible
23 Jul - 00:36:08 10° WNW 00:43:28 49° SSW 00:51:01 10° SE night (unlit)
23 Jul - 02:33:14 10° WSW 02:37:57 17° SSW 02:42:39 10° SSE night (unlit)
23 Jul - 08:22:44 10° S 08:25:40 13° SSE 08:28:33 10° SE daylight
23 Jul - 10:13:41 10° SW 10:19:58 40° SSE 10:25:54 10° E daylight
23 Jul - 12:07:09 10° WSW 12:13:26 53° NNW 12:19:30 10° NE daylight
23 Jul - 14:03:57 10° NW 14:07:11 14° NNW 14:10:25 10° N daylight
23 Jul - 19:52:15 10° N 19:53:56 11° NNE 19:55:39 10° NE visible
23 Jul - 21:41:47 10° NW 21:48:17 36° NNE 21:55:10 10° E visible
23 Jul - 23:34:39 10° WNW 23:42:07 71° SSW 23:49:55 10° SE night (unlit)
24 Jul - 01:30:22 10° WSW 01:36:19 24° SSW 01:42:20 10° SSE night (unlit)
24 Jul - 09:12:58 10° SSW 09:18:45 28° SSE 09:24:14 10° E daylight
24 Jul - 11:05:45 10° WSW 11:12:26 83° NNW 11:18:44 10° ENE daylight
24 Jul - 13:01:11 10° WNW 13:05:57 22° NNW 13:10:38 10° NNE daylight
24 Jul - 20:41:28 10° NNW 20:46:58 24° NNE 20:52:45 10° E visible
24 Jul - 22:33:31 10° WNW 22:40:48 80° NNE 22:48:34 10° ESE visible
25 Jul - 00:28:07 10° W 00:34:48 33° SSW 00:41:42 10° SE night (unlit)
25 Jul - 02:27:06 10° SW 02:29:40 12° SSW 02:32:14 10° S night (unlit)
25 Jul - 08:12:26 10° SSW 08:17:23 20° SSE 08:22:07 10° ESE daylight
25 Jul - 10:04:34 10° SW 10:11:23 65° SSE 10:17:44 10° ENE daylight
25 Jul - 11:59:01 10° W 12:04:50 33° NNW 12:10:25 10° NE daylight
25 Jul - 19:41:36 10° N 19:45:36 16° NNE 19:49:44 10° ENE visible
25 Jul - 21:32:42 10° NW 21:39:34 54° NNE 21:46:56 10° ESE visible
25 Jul - 23:26:19 10° W 23:33:23 47° SSW 23:40:48 10° SE night (unlit)
26 Jul - 01:23:21 10° WSW 01:27:53 16° SSW 01:32:30 10° SSE night (unlit)
26 Jul - 07:12:11 10° S 07:15:51 14° SSE 07:19:24 10° SE daylight
26 Jul - 09:03:34 10° SW 09:10:14 43° SSE 09:16:27 10° E daylight
26 Jul - 10:57:14 10° WSW 11:03:47 52° NNW 11:09:57 10° NE daylight
26 Jul - 12:54:18 10° NW 12:57:32 14° NNW 13:00:44 10° N daylight
26 Jul - 18:43:30 10° NNE 18:44:08 10° NNE 18:44:45 10° NNE visible
26 Jul - 20:32:09 10° NW 20:38:21 36° NNE 20:44:58 10° E visible
26 Jul - 22:24:55 10° WNW 22:32:03 69° SSW 22:39:41 10° SE visible
27 Jul - 00:20:34 10° WSW 00:26:15 23° SSW 00:32:07 10° SSE night (unlit)
27 Jul - 06:12:58 10° S 06:14:08 10° SSE 06:15:17 10° SSE daylight
27 Jul - 08:02:44 10° SSW 08:08:57 30° SSE 08:14:48 10° E daylight
27 Jul - 09:55:43 10° WSW 10:02:44 81° NNW 10:09:14 10° ENE daylight
27 Jul - 11:51:22 10° WNW 11:56:17 22° NNW 12:01:03 10° NNE daylight
27 Jul - 19:31:55 10° NNW 19:37:06 24° NNE 19:42:35 10° E visible
27 Jul - 21:23:51 10° WNW 21:30:49 82° NNE 21:38:20 10° ESE visible
27 Jul - 23:18:22 10° W 23:24:44 32° SSW 23:31:26 10° SSE night (unlit)
28 Jul - 01:17:25 10° SW 01:19:39 11° SSW 01:21:54 10° S night (unlit)
28 Jul - 07:02:05 10° SSW 07:07:32 21° SSE 07:12:43 10° ESE daylight
28 Jul - 08:54:25 10° SW 09:01:36 68° SSE 09:08:15 10° ENE daylight
28 Jul - 10:49:04 10° W 10:55:09 34° NNW 11:00:53 10° NE daylight
28 Jul - 18:32:09 10° N 18:35:49 15° NNE 18:39:35 10° ENE visible
28 Jul - 20:23:05 10° NW 20:29:39 54° NNE 20:36:43 10° ESE visible
28 Jul - 22:16:40 10° W 22:23:22 45° SSW 22:30:33 10° SE visible
29 Jul - 00:13:40 10° SW 00:17:53 16° SSW 00:22:11 10° SSE night (unlit)
29 Jul - 06:01:41 10° SSW 06:05:56 16° SSE 06:10:03 10° SE daylight
29 Jul - 07:53:20 10° SW 08:00:23 46° SSE 08:06:57 10° E daylight
29 Jul - 09:47:10 10° WSW 09:54:02 52° NNW 10:00:26 10° NE daylight
29 Jul - 11:44:25 10° WNW 11:47:51 14° NNW 11:51:13 10° N daylight
29 Jul - 19:22:36 10° NW 19:28:31 35° NNE 19:34:49 10° E visible
29 Jul - 21:15:19 10° WNW 21:22:06 67° SSW 21:29:27 10° SE visible
29 Jul - 23:10:56 10° WSW 23:16:15 21° SSW 23:21:48 10° SSE night (unlit)
